Lapse_Rate
6.6 6.5 6.4 6.4 6.3 6.2 6.1 6.1 6.0 5.9 6.0 6.1 6.1 6.0 6.0 6.0 6.0 5.9 5.7 6.1 6.0 5.9 5.9 5.9 6.0 6.1 6.2 6.3 6.3 6.5 6.8 7.0 7.0 6.5 6.8 6.9 6.7 6.9 6.7 6.6 6.9 7.1 6.6
6.4 6.3 6.1 6.0 6.0 6.1 6.1 6.1 6.0 6.0 5.9 5.8 5.9 6.0 6.0 5.8 5.8 6.1 5.9 5.8 6.0 6.0 6.0 5.8 5.8 5.9 6.0 6.1 6.4 6.3 6.5 6.9 7.0 6.8 6.6 6.7 7.0 6.8 6.5 6.5 6.4 6.5 6.7
6.0 5.9 5.7 5.7 5.6 5.7 5.8 5.9 5.9 5.7 5.7 5.7 5.6 5.7 5.8 5.9 5.7 5.8 5.9 5.6 6.1 6.0 6.0 5.9 5.9 5.8 5.8 5.9 6.0 6.1 6.3 6.5 6.6 6.7 6.8 6.8 6.4 6.6 6.8 6.6 6.5 6.8 6.6
5.7 5.6 5.6 5.4 5.3 5.3 5.4 5.4 5.4 5.4 5.4 5.5 5.6 5.7 5.5 5.8 5.8 6.0 5.8 5.7 5.4 5.8 6.2 6.0 6.0 5.8 5.8 5.8 5.9 5.9 5.9 6.1 6.4 6.5 6.6 6.6 6.4 6.5 6.8 6.6 6.7 6.5 6.9
5.7 5.7 5.6 5.6 5.6 5.5 5.8 6.0 6.2 6.1 6.4 6.7 6.8 6.1 6.2 6.4 6.1 6.0 6.0 6.1 6.1 5.7 5.6 6.0 6.0 5.8 5.8 5.6 5.6 5.6 5.8 5.9 6.1 6.2 6.4 6.5 6.4 6.5 6.5 6.3 6.2 6.2 6.5
5.7 5.6 5.5 5.5 5.7 5.8 6.1 6.3 6.1 6.1 6.0 6.0 6.1 6.0 5.9 5.8 5.8 5.8 5.8 6.4 6.3 6.2 6.3 5.3 6.0 5.9 5.7 5.8 5.6 5.5 5.5 5.6 5.9 6.2 6.3 6.2 6.4 6.5 6.5 6.5 6.1 6.1 6.7
5.9 5.8 6.0 5.8 5.7 5.8 5.8 6.1 6.3 6.2 6.1 6.2 6.1 6.4 6.2 6.4 6.3 6.3 6.6 6.2 6.1 6.2 6.4 6.4 5.5 6.1 6.0 5.8 5.6 5.5 5.5 5.4 5.4 5.7 6.1 6.1 6.2 6.3 6.4 6.4 6.3 6.4 6.2
5.6 5.5 5.6 5.7 5.7 5.7 5.9 6.0 6.0 6.0 6.2 6.3 6.2 6.2 6.2 6.1 5.9 6.3 6.4 6.8 6.3 6.2 6.1 6.5 6.3 6.1 5.5 5.8 5.9 5.6 5.5 5.5 5.5 5.3 5.6 6.0 6.0 6.0 6.2 6.3 6.1 6.0 6.3
5.7 5.8 5.8 5.9 6.2 6.3 6.1 6.2 6.2 6.3 6.3 6.5 6.7 6.4 6.3 6.5 6.2 6.1 6.1 5.6 6.0 6.0 6.5 5.7 5.7 6.1 6.0 5.9 5.4 5.9 5.5 5.4 5.4 5.5 5.4 5.5 5.9 6.0 5.9 6.0 6.1 6.1 6.0
6.5 6.4 6.3 6.2 6.4 6.4 6.2 6.4 6.6 6.7 6.6 6.7 6.8 6.8 6.2 6.1 6.2 6.3 6.7 6.6 6.1 6.0 6.1 6.1 5.7 5.6 5.9 6.1 5.9 5.5 5.8 5.5 5.2 5.4 5.5 5.5 5.6 5.8 6.0 6.0 5.9 6.0 6.0
6.4 6.3 6.3 6.4 6.5 6.6 6.6 6.6 6.6 6.5 6.7 6.8 6.8 6.7 6.8 6.6 6.7 6.5 6.7 6.6 6.6 6.3 6.2 6.1 5.7 5.8 5.4 5.7 6.1 6.0 5.7 5.8 5.7 5.4 5.4 5.4 5.4 5.5 5.8 5.9 6.0 5.8 5.8
6.3 6.5 6.5 6.5 6.5 6.4 6.5 6.7 6.8 6.7 6.7 6.5 6.4 6.3 6.1 6.2 6.2 6.2 5.9 6.1 5.9 7.1 6.3 6.5 6.4 5.6 5.4 5.6 6.0 6.1 5.9 5.8 5.8 5.5 5.4 5.5 5.4 5.4 5.5 5.8 5.9 5.9 5.7
6.4 6.5 6.6 6.8 6.8 6.7 6.7 6.7 6.6 6.4 6.2 6.0 5.9 5.7 5.7 5.9 6.1 6.3 6.3 6.0 6.4 7.0 7.0 7.1 7.1 6.4 5.3 5.7 6.3 5.9 5.9 5.6 6.0 6.2 5.9 5.7 5.7 5.6 5.6 5.6 5.8 5.8 5.8
6.7 6.8 6.8 6.7 6.6 6.6 6.3 6.0 5.7 5.5 5.5 5.5 5.6 5.7 5.9 6.2 6.3 6.5 6.7 6.8 7.0 7.3 7.4 7.4 7.2 7.2 6.6 5.7 5.4 5.7 6.5 6.0 6.3 6.3 6.4 6.2 6.0 5.9 5.9 5.9 5.8 5.9 5.9
6.8 6.7 6.4 6.3 6.1 6.0 6.0 5.8 5.8 5.9 6.2 6.4 6.5 6.6 6.8 7.0 7.0 7.2 7.1 7.0 7.0 7.2 7.4 7.2 7.2 7.0 6.7 6.3 5.4 5.3 6.3 6.2 6.3 6.6 6.4 6.3 6.4 6.3 6.1 6.0 6.0 6.0 6.0
6.5 6.1 5.9 5.9 5.6 5.7 5.9 6.2 6.5 6.7 6.8 7.0 6.9 6.9 7.0 7.3 7.3 7.3 7.4 7.1 7.0 7.0 7.2 7.0 6.8 6.9 6.5 6.3 6.1 5.6 6.3 6.5 6.3 6.4 6.7 6.7 6.3 6.3 6.3 6.1 5.9 6.1 6.1
6.2 5.8 5.7 5.6 5.9 6.4 6.8 7.0 7.2 7.4 7.6 7.5 7.5 7.5 7.3 7.1 6.8 6.6 6.3 6.1 5.9 5.7 6.2 7.0 6.4 6.5 6.3 6.0 6.2 6.2 6.2 6.4 6.5 6.6 6.7 6.8 7.0 7.0 6.8 6.4 6.2 6.0 6.0
5.8 6.0 5.9 6.0 6.4 6.7 7.1 7.3 7.4 7.3 7.1 6.8 6.4 6.3 6.2 6.1 6.6 6.5 6.4 6.3 6.0 5.6 5.5 5.4 5.4 5.6 6.2 6.3 6.2 6.1 6.4 5.9 5.6 6.0 6.3 6.8 7.0 7.1 6.8 6.8 6.4 6.2 5.9
5.8 5.8 6.0 6.6 6.8 7.0 6.8 6.7 6.7 6.3 6.5 6.6 6.4 6.4 6.5 6.6 6.6 6.6 6.4 6.4 6.1 5.6 5.5 5.5 5.7 5.4 5.5 5.5 5.9 5.9 5.8 5.6 5.9 5.8 5.8 5.7 6.0 6.5 6.8 6.7 6.6 6.5 6.3
6.0 6.4 6.9 7.0 6.7 6.6 6.5 5.9 6.1 6.4 6.5 6.4 6.4 6.5 6.5 6.5 6.4 6.4 6.3 6.1 5.9 5.9 5.8 5.9 6.1 5.9 5.1 4.9 4.9 5.0 5.1 5.1 5.4 5.1 4.7 5.2 5.6 5.8 6.2 6.4 6.2 6.3 6.4
6.3 6.6 6.6 6.6 6.4 6.3 5.8 6.3 6.4 6.3 6.3 6.4 6.4 6.3 6.3 6.3 6.4 6.2 6.1 6.2 6.1 5.9 5.9 5.9 6.0 5.8 5.2 5.6 5.8 5.5 5.2 5.2 5.5 5.6 5.6 5.7 5.6 5.4 5.4 5.4 5.7 5.8 6.0
6.2 6.4 6.5 6.5 6.0 5.8 5.8 6.4 6.3 6.2 6.3 6.3 6.3 6.2 6.1 6.0 5.8 6.2 6.2 6.1 6.0 5.9 5.9 5.9 6.0 5.9 5.7 5.6 5.6 5.4 5.3 5.3 5.4 5.0 5.5 5.7 5.4 5.7 5.9 6.0 6.0 6.2 6.4
6.5 6.5 6.3 5.9 5.8 6.0 6.1 6.4 6.2 6.4 6.4 6.5 6.5 6.4 6.1 5.9 5.9 5.7 5.9 5.8 5.9 6.0 5.7 5.6 5.6 5.6 5.4 5.4 5.3 5.3 5.3 5.2 5.3 5.3 5.1 5.3 5.2 5.3 5.3 5.6 5.8 5.7 5.8
6.5 6.3 6.3 6.3 6.3 6.1 6.2 6.5 6.6 6.8 7.0 7.0 7.0 6.8 6.6 6.4 6.2 5.7 5.7 5.8 5.7 5.6 5.5 5.4 5.4 5.6 5.4 5.4 5.4 5.5 5.6 5.6 5.7 5.9 5.8 5.7 5.7 5.6 5.2 5.4 5.6 5.7 5.5
6.4 6.5 6.5 6.4 6.4 6.4 6.4 6.7 7.0 7.2 7.3 7.3 7.3 7.3 7.2 6.9 6.4 5.9 5.5 5.4 5.4 5.5 5.3 5.3 5.3 5.4 5.3 5.2 5.2 5.1 5.5 5.3 5.6 5.8 5.6 5.3 5.7 5.6 5.4 5.8 6.1 6.0 6.0
6.3 6.6 6.5 6.5 6.4 6.6 6.9 7.2 7.3 7.2 7.3 7.3 7.4 7.3 7.1 6.7 6.3 5.9 5.5 5.3 5.5 5.5 5.2 5.4 5.3 5.3 5.4 5.4 5.3 5.4 5.6 5.8 5.9 6.0 5.8 5.0 4.9 4.6 4.8 5.0 5.4 5.8 6.1
Wind_Speed
5 7 8 9 9 10 10 9 9 10 9 11 11 11 11 11 12 11 7 8 4 6 5 4 4 3 1 1 1 1 2 3 5 6 8 11 14 18 20 22 21 20 21
5 6 7 8 9 10 11 11 11 9 9 12 9 12 12 13 13 11 12 8 6 5 6 5 4 4 3 2 3 1 2 4 5 7 6 6 8 12 16 22 23 21 21
4 6 7 6 10 11 11 12 12 12 9 10 11 10 12 14 15 12 13 13 11 9 7 5 6 5 5 4 3 2 3 3 4 4 6 6 7 7 10 16 21 21 22
6 8 7 7 11 12 12 9 9 10 10 10 9 10 10 12 14 14 15 15 13 13 13 10 7 6 5 4 3 2 2 1 3 4 8 4 3 3 6 8 14 17 17
7 9 10 12 13 12 9 9 10 10 10 11 12 11 10 10 11 14 14 16 16 16 14 22 15 10 7 4 3 3 2 1 3 3 4 5 6 6 7 6 10 14 20
9 10 12 13 14 9 9 9 11 11 11 11 14 13 11 10 10 10 12 17 18 18 18 16 15 15 14 10 7 6 4 3 1 1 1 2 4 5 6 6 6 6 11
11 13 11 11 13 10 11 11 11 13 11 11 12 12 12 13 13 11 11 11 13 18 18 18 15 18 18 17 12 9 7 6 4 4 5 5 5 4 5 5 7 9 9
12 14 12 10 11 10 11 11 12 11 11 11 12 12 14 12 12 15 13 12 15 12 12 18 19 18 14 17 17 13 8 7 6 5 5 4 5 7 9 8 8 9 10
15 13 14 12 11 11 10 11 11 14 12 12 14 12 12 14 11 11 12 13 14 11 12 13 19 20 18 15 18 14 13 10 7 7 7 7 7 9 11 12 13 12 12
15 16 17 15 11 9 12 11 11 11 12 13 10 12 13 12 14 15 13 7 10 10 10 11 11 17 18 17 16 5 19 12 8 9 9 10 9 9 9 11 14 17 16
16 17 17 15 11 10 11 13 12 12 11 11 11 9 10 9 9 5 9 11 4 8 7 8 9 8 18 17 16 15 23 17 12 10 10 11 10 11 11 11 13 16 20
11 16 19 16 15 12 10 10 9 10 8 9 8 7 6 4 5 3 4 8 8 5 4 3 7 7 9 10 14 8 11 10 11 12 12 12 11 12 12 12 12 14 16
12 13 13 12 10 11 8 7 7 5 6 6 6 4 3 2 2 1 1 1 2 3 4 6 5 9 11 11 12 8 17 13 11 10 13 14 13 14 14 14 14 14 15
12 13 10 11 11 13 9 6 2 3 3 2 2 2 2 2 1 1 2 2 3 3 4 6 6 5 12 14 2 6 7 16 13 15 15 14 14 14 14 16 17 16 16
11 11 13 10 10 10 10 9 7 8 5 5 5 5 5 4 4 4 4 4 3 4 8 8 7 8 9 17 14 13 13 15 22 23 18 16 15 15 16 17 20 20 18
8 8 7 6 7 7 6 5 5 5 5 6 5 9 8 7 7 7 7 7 7 7 9 10 8 9 9 13 16 10 14 13 12 13 19 19 18 18 19 20 21 22 20
6 6 7 6 6 8 7 7 8 9 9 9 9 11 12 12 8 8 8 9 9 9 10 9 9 10 11 11 11 14 16 16 16 24 27 25 25 24 22 20 21 19 19
8 7 8 10 8 10 9 9 10 10 11 12 11 12 14 11 13 12 10 12 11 12 10 14 11 9 12 11 12 12 11 20 17 20 20 26 26 25 22 22 21 20 20
11 11 9 10 12 12 12 11 12 12 13 15 15 15 14 14 13 11 12 11 11 10 11 11 11 10 10 10 11 11 12 12 18 20 20 17 20 23 22 22 22 22 23
10 11 11 11 12 12 12 12 10 12 14 14 15 14 14 14 15 14 13 13 12 11 12 11 11 11 11 11 10 10 10 9 10 14 17 18 17 22 26 27 25 23 24
10 12 13 13 12 11 8 7 8 12 15 16 16 16 15 12 11 12 11 13 13 11 11 11 11 10 10 10 12 10 10 9 10 9 9 9 8 8 12 22 27 26 29
12 13 13 13 13 10 9 7 8 11 15 16 15 16 15 14 14 13 16 18 14 13 13 10 11 12 13 11 10 10 10 9 9 7 10 10 8 9 10 14 17 9 10
13 13 13 13 12 14 6 6 10 11 14 15 16 14 14 13 12 14 11 9 11 15 14 14 15 15 15 14 13 14 13 11 11 8 9 10 8 10 7 14 15 17 14
12 12 12 12 13 11 8 10 13 14 14 16 14 15 16 16 15 13 13 14 14 14 14 12 16 16 15 13 13 14 14 13 11 10 10 11 8 10 8 11 16 17 19
11 12 11 13 14 14 12 12 14 13 13 15 15 14 14 15 18 16 11 12 14 13 14 16 19 24 23 23 19 11 11 11 10 9 9 10 9 9 9 9 10 18 21
11 9 8 12 14 13 13 14 12 9 11 11 13 14 16 16 18 13 9 9 12 13 12 13 12 14 16 16 19 15 11 12 11 12 10 9 10 8 7 8 10 9 12
Wind_Direction
348 327 333 308 313 307 298 297 298 291 284 279 270 276 274 270 268 271 265 137 172 242 239 227 226 217 167 97 26 323 294 275 272 270 260 245 246 241 230 225 226 226 225
337 318 313 313 306 304 306 313 311 305 299 292 279 262 270 276 267 254 263 169 171 226 219 188 174 164 154 115 81 51 276 282 289 268 263 265 248 249 244 239 230 228 227
306 305 298 306 306 311 303 284 282 281 275 277 277 262 261 257 263 255 251 259 181 203 214 205 195 186 164 143 108 54 60 59 40 359 282 280 265 255 253 242 231 230 228
303 305 297 299 301 305 296 293 290 290 287 283 274 275 272 249 252 242 244 250 242 214 194 205 213 200 189 179 171 161 139 47 85 47 40 21 335 332 252 252 236 230 237
304 301 295 295 298 292 289 288 285 279 277 272 275 267 255 258 253 242 236 236 240 249 227 180 188 203 205 203 206 196 173 172 138 58 28 34 25 26 13 337 257 252 240
323 311 299 293 291 287 283 283 288 285 283 284 285 279 284 262 247 247 241 236 231 228 235 201 189 205 201 199 208 210 195 179 135 110 50 11 344 359 356 340 337 299 266
319 308 295 301 300 292 295 295 284 278 276 275 270 269 258 257 250 246 246 242 239 225 217 234 210 216 195 193 198 210 208 209 222 243 253 271 275 299 299 317 317 315 307
305 305 311 303 302 298 293 289 285 282 278 274 275 278 278 270 246 231 226 233 232 236 218 215 225 234 218 190 193 191 206 219 222 228 223 246 275 285 291 292 291 293 293
304 305 307 310 307 302 295 294 290 286 284 278 278 271 275 270 269 262 228 220 231 223 238 217 207 219 219 237 155 177 187 202 214 229 245 248 250 268 279 284 281 278 277
313 317 314 313 306 306 296 292 289 300 299 289 286 282 278 269 275 275 271 247 228 247 225 237 216 206 215 225 230 147 174 190 210 236 251 257 261 259 268 283 283 279 271
324 319 317 320 316 304 302 306 301 291 295 296 298 321 311 304 298 309 289 271 259 231 261 241 248 204 210 225 236 218 179 187 198 224 245 255 257 266 270 276 281 283 276
321 324 324 319 313 299 302 319 354 359 344 324 326 344 358 343 336 351 325 311 326 275 222 279 297 278 256 245 239 133 152 182 190 214 233 235 253 265 273 273 281 287 286
323 318 322 314 316 337 349 339 323 318 338 333 343 343 3 12 349 338 305 286 296 309 324 342 304 282 296 256 252 225 174 193 216 222 231 235 250 261 268 275 280 282 283
321 323 323 352 4 30 14 359 12 342 307 284 254 256 289 292 307 305 318 313 299 260 250 251 274 286 284 280 235 121 244 201 209 229 230 238 246 251 263 276 280 280 277
320 0 29 42 37 21 11 8 347 335 290 276 270 239 240 238 237 234 246 259 288 301 297 282 271 256 227 257 259 244 246 238 220 233 227 230 238 245 257 269 278 279 273
17 9 37 21 1 351 330 315 293 302 313 317 305 299 285 269 258 248 236 231 223 246 271 280 286 272 270 276 280 262 255 266 258 224 229 234 240 245 256 264 267 265 267
348 332 320 320 308 288 294 289 281 278 277 275 275 276 282 280 280 284 261 239 235 229 249 263 269 265 270 272 270 274 269 258 257 243 234 228 231 240 244 249 256 248 259
290 302 286 290 304 306 302 298 284 297 297 294 293 293 295 294 294 290 283 281 282 285 286 286 280 283 280 279 280 277 272 270 264 264 230 225 228 230 233 241 241 249 261
311 309 322 321 311 312 307 303 297 305 312 311 307 302 298 295 291 290 290 289 285 285 287 283 282 280 278 278 277 274 272 265 267 265 262 232 230 233 237 234 236 242 252
312 302 294 295 304 311 305 295 312 320 310 301 298 293 290 290 290 291 290 292 290 285 278 273 270 267 265 262 265 264 262 257 259 266 265 259 249 235 238 249 254 254 255
314 316 312 310 312 310 319 342 322 315 308 304 299 292 287 293 306 284 282 285 284 283 279 277 280 286 288 289 283 290 292 295 291 295 295 291 286 272 259 235 248 250 245
319 318 313 312 309 305 82 40 348 315 305 300 298 295 293 290 270 254 248 250 258 279 282 284 285 279 280 276 273 276 279 274 271 250 262 266 269 266 268 273 280 306 326
318 314 311 313 316 313 70 4 345 318 305 294 295 301 301 296 302 302 318 299 271 256 252 263 269 268 272 274 279 276 271 267 269 271 266 265 256 257 258 262 259 273 276
316 313 314 325 319 318 56 2 342 311 303 302 302 300 302 305 305 297 286 282 277 270 259 250 250 262 270 278 278 272 275 275 274 267 264 267 261 258 258 251 254 254 256
312 314 329 336 326 320 349 341 330 314 309 312 305 305 298 290 290 292 292 286 286 279 273 268 265 268 273 272 264 274 267 271 274 261 249 258 259 260 254 254 251 248 246
310 330 327 318 310 304 309 318 311 308 310 301 306 304 297 286 292 304 287 290 291 291 296 296 293 288 276 266 259 251 256 258 261 265 259 268 269 264 267 242 242 244 244